TimeCDT,TemperatureF,Dew PointF,Humidity,Sea Level PressureIn,VisibilityMPH,Wind Direction,Wind SpeedMPH,Gust SpeedMPH,PrecipitationIn,Events,Conditions,WindDirDegrees,DateUTC
12:01 AM,60.8,59.0,94,30.15,1.8,NNW,3.5,-,N/A,,Scattered Clouds,340,2013-10-13 05:01:00
12:07 AM,60.8,59.0,94,30.15,0.8,Calm,Calm,-,N/A,,Mist,0,2013-10-13 05:07:00
12:53 AM,61.0,60.1,97,30.15,0.5,Calm,Calm,-,N/A,Fog,Fog,0,2013-10-13 05:53:00
1:53 AM,60.1,60.1,100,30.17,0.2,Calm,Calm,-,N/A,Fog,Fog,0,2013-10-13 06:53:00
2:12 AM,60.8,60.8,100,30.18,0.5,North,6.9,-,N/A,Fog,Fog,360,2013-10-13 07:12:00
2:45 AM,60.8,60.8,100,30.18,1.5,North,5.8,-,N/A,,Overcast,10,2013-10-13 07:45:00
2:53 AM,61.0,60.1,97,30.18,2.0,North,5.8,-,N/A,,Overcast,10,2013-10-13 07:53:00
3:02 AM,60.8,60.8,100,30.18,1.0,NNE,8.1,-,N/A,,Mist,20,2013-10-13 08:02:00
3:10 AM,60.8,60.8,100,30.18,0.5,North,8.1,-,N/A,Fog,Fog,10,2013-10-13 08:10:00
3:53 AM,62.1,62.1,100,30.18,1.0,NNE,9.2,-,N/A,,Mist,20,2013-10-13 08:53:00
4:53 AM,62.1,61.0,96,30.20,1.5,NNE,9.2,-,0.01,,Overcast,20,2013-10-13 09:53:00
4:59 AM,60.8,60.8,100,30.21,3.0,NNE,8.1,-,N/A,,Overcast,20,2013-10-13 09:59:00
5:25 AM,60.8,60.8,100,30.21,6.0,North,6.9,-,N/A,,Scattered Clouds,10,2013-10-13 10:25:00
5:53 AM,59.0,57.9,96,30.22,10.0,North,8.1,-,N/A,,Clear,360,2013-10-13 10:53:00
6:53 AM,57.0,55.9,96,30.24,10.0,North,6.9,-,N/A,,Clear,10,2013-10-13 11:53:00
7:53 AM,57.9,55.9,93,30.26,10.0,North,6.9,-,N/A,,Clear,10,2013-10-13 12:53:00
8:53 AM,62.1,55.9,80,30.27,10.0,NNE,8.1,-,N/A,,Clear,30,2013-10-13 13:53:00
9:53 AM,68.0,54.0,61,30.29,10.0,NE,12.7,-,N/A,,Clear,40,2013-10-13 14:53:00
10:53 AM,71.1,54.0,55,30.29,10.0,NNE,12.7,16.1,N/A,,Clear,20,2013-10-13 15:53:00
11:53 AM,73.9,55.0,52,30.29,10.0,NE,8.1,-,N/A,,Clear,40,2013-10-13 16:53:00
12:53 PM,75.9,55.9,50,30.27,10.0,NE,11.5,19.6,N/A,,Clear,40,2013-10-13 17:53:00
1:53 PM,77.0,55.9,48,30.25,10.0,NNE,13.8,18.4,N/A,,Clear,20,2013-10-13 18:53:00
2:53 PM,77.0,55.0,47,30.24,10.0,NNE,9.2,17.3,N/A,,Clear,20,2013-10-13 19:53:00
3:53 PM,77.0,54.0,45,30.23,10.0,NNE,9.2,-,N/A,,Clear,20,2013-10-13 20:53:00
4:53 PM,75.9,53.1,45,30.22,10.0,NNE,11.5,-,N/A,,Clear,20,2013-10-13 21:53:00
5:53 PM,72.0,51.1,48,30.23,10.0,NNE,8.1,-,N/A,,Clear,20,2013-10-13 22:53:00
6:53 PM,64.0,52.0,65,30.24,10.0,North,6.9,-,N/A,,Clear,10,2013-10-13 23:53:00
7:53 PM,62.1,51.1,67,30.25,10.0,NNE,8.1,-,N/A,,Clear,20,2013-10-14 00:53:00
8:53 PM,59.0,51.1,75,30.26,10.0,NNE,4.6,-,N/A,,Clear,30,2013-10-14 01:53:00
9:53 PM,55.0,51.1,86,30.26,10.0,NNE,5.8,-,N/A,,Clear,20,2013-10-14 02:53:00
10:53 PM,55.0,51.1,86,30.26,10.0,North,3.5,-,N/A,,Clear,360,2013-10-14 03:53:00
11:53 PM,52.0,50.0,93,30.25,10.0,North,5.8,-,N/A,,Clear,350,2013-10-14 04:53:00